Location: Redwood City
(37.4850°N, 122.2350°W)
Time: 18:04:36
(UTC-07:00)

ISS - Visible Passes

Search period start: 28 March 2015 00:00
Search period end: 07 April 2015 00:00
Orbit: 396 x 406 km, 51.6° (Epoch: 28 March)

Date Brightness Start Highest point End Pass type
(mag) Time Alt. Az. Time Alt. Az. Time Alt. Az.
28 Mar -1.4 05:50:37 10° NNW 05:53:27 28° NNE 05:56:18 10° E visible
29 Mar -0.7 04:58:47 15° N 04:59:53 18° NNE 05:02:10 10° ENE visible
30 Mar -2.9 05:40:37 15° NW 05:43:10 62° NE 05:46:21 10° ESE visible
31 Mar -1.5 04:50:04 30° NE 04:50:04 30° NE 04:52:36 10° E visible
31 Mar -2.0 06:23:19 10° WNW 06:25:57 23° SW 06:28:32 10° S visible
01 Apr -3.2 05:32:27 48° SW 05:32:37 49° SW 05:35:43 10° SSE visible
02 Apr -2.1 21:13:15 10° SW 21:15:12 33° SSW 21:15:12 33° SSW visible
03 Apr -2.5 20:20:09 10° SSW 20:23:02 30° SE 20:25:20 14° ENE visible
03 Apr -0.6 21:56:37 10° W 21:58:00 19° WNW 21:58:00 19° WNW visible
04 Apr -2.4 21:02:36 10° WSW 21:05:45 48° NW 21:07:46 20° NNE visible
05 Apr -3.4 20:08:53 10° SW 20:12:08 80° SE 20:15:25 10° NE visible
05 Apr -0.5 21:46:50 10° WNW 21:48:54 15° NNW 21:49:48 14° N visible
06 Apr -1.0 20:52:19 10° W 20:55:03 24° NNW 20:57:45 10° NNE visible
